Lapse_Rate
8.4 8.3 8.2 8.0 8.0 7.9 7.9 7.6 7.4 7.2 7.4 7.2 7.0 6.5 6.5 6.4 7.2 7.1 7.1 7.1 6.9 6.9 6.7 6.5 6.3 6.1 5.7 5.5 5.4 5.2 5.3 5.4 5.5 5.5 5.5 5.3 5.3 5.3 5.3 5.4 5.4 5.5 5.5 5.6 5.7 5.8 5.9 6.0 6.1
8.3 8.2 8.3 8.2 8.1 8.0 7.8 7.3 7.2 7.2 7.2 7.3 7.1 6.9 7.0 7.1 7.5 7.4 7.1 7.0 7.0 6.9 6.9 6.9 6.6 6.4 6.0 5.7 5.5 5.4 5.5 5.6 5.5 5.4 5.3 5.2 5.2 5.2 5.4 5.4 5.4 5.5 5.5 5.5 5.7 5.7 5.7 5.9 5.9
8.4 8.3 8.2 8.3 8.2 8.0 7.8 7.6 7.2 7.0 7.2 7.5 7.5 7.0 7.3 7.3 7.6 7.6 7.7 7.7 7.5 7.3 7.1 7.1 7.0 6.5 6.1 5.8 5.7 5.6 5.5 5.4 5.3 5.3 5.3 5.2 5.3 5.5 5.5 5.5 5.4 5.3 5.4 5.5 5.6 5.9 6.0 6.1 6.2
8.2 8.2 8.2 8.4 8.3 8.0 7.8 7.4 7.0 7.0 7.6 7.7 7.6 7.4 7.6 7.6 7.3 7.8 7.8 7.8 7.5 7.2 7.1 6.9 6.7 6.6 6.1 5.9 5.8 5.6 5.4 5.4 5.5 5.4 5.5 5.5 5.5 5.4 5.4 5.4 5.4 5.4 5.5 5.5 5.7 5.7 5.9 6.0 6.0
8.2 8.3 8.4 8.4 8.3 8.1 8.1 7.6 7.3 7.1 7.9 7.8 7.7 7.7 7.7 7.7 7.8 8.0 8.1 7.9 7.3 6.9 6.7 6.5 6.8 6.5 6.1 6.0 5.9 5.8 5.7 5.6 5.5 5.5 5.4 5.4 5.5 5.7 5.7 5.7 5.7 5.7 5.5 5.6 5.5 5.6 5.6 5.7 5.6
8.5 8.5 8.5 8.7 8.3 8.1 8.1 8.2 8.1 8.3 8.1 8.2 7.9 7.9 7.7 8.2 7.8 7.8 7.6 7.7 7.2 7.0 7.0 6.8 6.6 6.6 6.3 6.0 5.8 5.5 5.5 5.4 5.5 5.4 5.4 5.5 5.7 5.7 5.6 5.7 5.7 5.5 5.4 5.4 5.4 5.3 5.2 5.3 5.2
8.5 8.5 8.6 8.8 8.6 8.3 8.1 8.0 7.9 7.9 7.9 7.8 7.7 7.6 8.1 8.2 8.2 8.0 7.7 7.7 7.7 7.4 7.2 6.8 6.4 6.2 5.9 5.7 5.4 5.3 5.4 5.3 5.4 5.5 5.6 5.8 5.8 5.6 5.5 5.5 5.6 5.6 5.4 5.4 5.3 5.3 5.2 5.2 5.3
8.5 8.4 8.8 8.6 8.6 8.5 8.3 8.2 8.0 8.0 7.9 7.8 7.7 7.9 8.0 8.1 8.0 7.9 7.7 7.4 7.3 7.2 6.8 6.5 6.2 5.8 5.4 5.2 5.1 5.2 5.3 5.4 5.4 5.5 5.6 5.5 5.3 5.3 5.4 5.4 5.4 5.5 5.6 5.6 5.5 5.5 5.5 5.4 5.4
8.2 8.2 8.8 8.9 8.7 8.5 8.5 8.2 8.2 8.2 8.2 8.1 8.0 8.4 8.2 8.0 7.9 7.8 7.7 7.5 6.8 6.7 6.6 6.4 5.9 5.6 5.6 5.5 5.5 5.4 5.4 5.3 5.2 5.4 5.2 5.1 5.1 5.2 5.4 5.5 5.5 5.4 5.3 5.3 5.3 5.4 5.5 5.4 5.4
7.9 8.3 8.6 8.7 8.8 8.7 8.4 8.3 8.3 8.4 8.5 8.3 8.2 8.2 8.0 7.7 7.8 7.8 7.3 7.2 7.0 6.4 6.3 6.0 5.5 5.2 5.2 5.2 5.4 5.4 4.9 5.0 5.1 4.9 4.8 5.1 5.3 5.1 5.1 5.1 5.0 5.0 5.1 5.1 5.1 5.2 5.3 5.4 5.4
7.6 8.5 8.2 8.6 8.8 8.9 8.9 8.8 8.5 8.5 8.5 8.4 8.2 8.2 8.1 7.2 7.3 7.5 7.4 7.2 6.7 6.1 5.9 5.7 5.7 5.6 5.8 5.7 5.2 4.7 4.8 4.6 4.8 4.9 4.9 4.9 4.8 4.8 4.8 4.7 4.7 4.7 4.7 4.9 5.0 5.1 5.1 5.1 5.2
7.5 8.0 7.9 8.3 8.5 8.8 9.0 8.9 8.7 8.6 8.5 8.2 8.1 8.0 7.7 7.2 7.4 7.2 6.9 6.8 6.2 6.0 5.9 5.8 5.5 5.4 5.3 5.1 4.9 4.9 4.9 4.8 4.7 5.0 5.0 5.0 5.1 4.9 4.8 4.8 4.7 4.9 5.0 5.0 5.0 5.1 5.1 5.1 5.0
7.3 7.8 7.7 8.0 8.4 8.7 9.0 9.0 8.6 8.7 8.5 8.3 8.2 7.8 7.5 7.3 7.3 7.2 6.5 6.6 6.1 5.8 5.2 5.3 5.6 5.6 5.5 5.2 5.1 5.0 4.5 4.8 4.8 4.9 5.0 4.8 4.9 4.9 4.9 4.8 4.8 4.9 5.0 5.0 4.9 4.8 4.7 4.8 5.0
7.3 7.5 7.8 8.1 8.3 8.5 8.8 8.8 8.6 8.7 8.4 8.1 7.9 7.8 7.7 7.2 7.4 6.7 6.2 6.0 5.9 5.3 5.3 5.7 5.8 5.8 5.6 5.1 4.9 4.7 4.8 4.7 4.9 4.8 4.8 4.7 4.7 4.6 4.7 4.7 4.8 4.8 4.8 4.7 4.8 4.9 5.0 5.1 5.2
7.1 7.2 7.8 8.3 8.0 7.9 8.3 8.6 8.6 8.5 8.4 8.3 8.0 8.0 7.7 7.2 6.9 6.7 6.4 5.9 5.6 5.7 5.5 5.6 5.6 5.7 5.2 5.0 4.8 4.6 4.4 4.7 4.7 4.7 4.6 4.5 4.4 4.6 4.8 4.9 4.7 4.6 4.8 4.9 4.9 5.0 5.0 5.1 5.1
7.2 7.5 8.1 8.0 8.0 8.1 8.4 8.2 8.2 8.2 8.2 8.0 8.1 7.7 7.5 7.0 6.9 7.0 6.4 5.8 5.6 5.3 5.7 5.6 5.5 5.0 5.0 4.6 4.6 4.2 4.5 4.5 4.4 4.5 4.3 4.4 4.5 4.5 4.5 4.5 4.7 4.8 4.7 4.7 4.7 4.9 4.9 5.0 5.1
7.4 7.9 8.0 7.7 7.9 8.2 8.3 7.9 8.0 7.8 7.7 7.7 7.7 7.4 7.5 6.7 6.9 6.4 6.1 5.7 5.8 5.7 5.4 5.1 5.0 4.9 4.6 4.6 4.2 4.4 4.6 4.5 4.4 4.5 4.5 4.4 4.3 4.3 4.6 4.9 4.9 4.9 4.8 4.9 4.9 4.9 5.0 5.1 5.3
7.3 7.5 7.5 7.6 7.9 8.3 8.0 8.0 8.2 7.5 7.5 7.8 7.6 7.4 6.8 6.3 6.3 6.2 5.9 5.7 5.7 5.8 5.3 5.1 4.5 4.4 4.5 4.3 4.4 4.6 4.5 4.4 4.6 4.5 4.4 4.4 4.5 4.8 4.9 4.9 4.8 4.9 4.9 4.9 5.0 5.2 5.4 5.6 5.8
7.4 7.4 7.4 7.6 7.6 7.7 8.0 8.1 7.8 7.2 7.7 7.6 6.8 6.6 6.3 6.1 6.0 5.8 5.5 5.5 5.2 5.3 5.0 4.5 4.8 4.6 4.6 4.3 4.5 4.5 4.5 4.6 4.6 4.6 4.7 5.0 5.1 5.0 4.9 4.8 4.8 4.7 4.8 4.9 5.2 5.7 6.1 6.3 6.4
7.6 7.3 7.7 7.6 7.3 7.1 6.8 7.2 6.6 6.6 6.4 6.4 6.4 6.4 6.1 5.9 5.4 5.1 5.1 5.0 5.3 4.9 4.8 4.8 4.8 4.8 4.7 4.3 4.2 4.4 4.5 4.5 4.5 4.7 4.9 4.9 4.9 4.9 4.9 4.8 4.7 4.8 5.1 5.6 6.0 6.3 6.4 6.5 6.6
7.9 7.9 8.2 8.1 7.9 7.3 6.9 6.3 6.0 6.2 6.2 6.0 6.2 6.0 5.8 5.5 5.4 5.7 5.3 5.0 4.9 5.0 4.9 4.7 5.0 5.0 4.4 4.1 4.4 4.3 4.3 4.5 4.9 5.1 5.2 5.1 5.0 4.9 4.8 4.8 4.9 5.2 5.7 6.2 6.2 6.3 6.4 6.7 6.8
8.2 8.7 8.7 8.8 8.3 7.1 6.8 6.2 6.1 6.2 6.2 6.3 6.1 6.1 5.8 5.4 5.4 5.3 5.1 5.0 5.0 4.8 4.9 5.1 5.0 4.8 4.7 4.6 4.6 4.5 4.7 5.2 5.3 5.2 5.0 4.9 5.0 4.9 5.0 5.3 5.9 6.2 6.3 6.4 6.6 6.8 6.7 6.7 6.6
8.8 9.1 9.1 8.8 7.7 7.5 6.7 6.9 6.6 6.6 6.4 6.4 6.4 6.2 5.9 5.5 5.4 5.2 5.1 5.0 5.0 4.9 4.9 4.8 4.9 4.8 4.2 4.4 4.6 4.9 5.3 5.3 5.1 5.0 5.0 5.0 5.1 5.3 5.9 6.3 6.4 6.6 6.8 6.8 6.6 6.5 6.3 6.2 6.2
9.0 9.0 8.4 7.8 7.6 7.0 6.9 6.8 6.9 6.7 6.8 6.5 6.4 6.3 5.9 5.7 5.1 5.0 5.1 5.0 4.8 4.7 4.8 4.9 4.5 4.2 4.6 4.8 4.9 5.2 5.2 5.1 5.1 5.1 5.1 5.4 5.8 6.4 6.5 6.6 6.9 6.8 6.5 6.3 6.3 6.2 6.1 6.1 6.0
8.9 8.8 7.5 7.2 7.2 6.5 7.0 7.1 6.9 6.7 6.5 6.4 6.1 6.3 6.1 5.5 5.1 5.0 5.0 4.8 4.7 4.7 4.9 4.7 4.8 5.2 4.9 4.9 5.1 5.1 5.0 5.0 5.1 5.2 5.5 5.9 6.6 6.6 6.8 6.9 6.7 6.5 6.3 6.2 6.2 6.1 6.0 6.0 6.0
9.0 9.0 9.1 8.1 6.4 6.6 7.2 7.0 6.7 6.5 6.4 6.1 6.1 6.1 5.7 5.2 5.1 5.0 4.9 4.8 5.0 4.9 4.6 4.5 4.8 5.0 4.7 5.1 5.1 4.9 5.0 5.1 5.2 5.5 6.0 6.6 6.7 6.9 6.9 6.7 6.5 6.3 6.3 6.3 6.2 6.1 6.0 5.9 5.9
8.8 9.1 8.9 8.4 7.0 7.0 6.8 6.5 6.5 6.5 6.3 6.2 6.1 5.9 5.6 5.4 5.2 5.0 4.9 5.1 4.8 4.2 4.1 4.9 4.8 4.6 5.0 5.1 4.9 5.0 5.0 5.3 5.5 6.1 6.7 6.8 6.9 7.1 6.8 6.6 6.4 6.4 6.3 6.3 6.1 6.0 5.9 5.9 5.8
8.9 8.9 8.8 8.6 7.1 7.3 6.5 6.6 7.0 6.8 6.6 6.3 5.9 5.7 5.6 5.4 5.2 5.1 5.0 4.7 4.2 4.0 3.8 4.6 4.7 5.0 5.1 4.9 5.0 5.0 5.3 5.5 6.1 6.7 6.9 7.1 7.3 7.1 6.8 6.6 6.5 6.5 6.3 6.1 6.0 5.9 5.7 5.7 5.8
8.8 9.0 8.9 8.6 8.3 6.8 6.5 6.5 6.6 6.4 6.2 5.8 5.8 5.8 5.7 5.5 5.2 5.0 4.9 4.1 4.2 3.8 4.7 4.6 5.0 5.1 5.0 5.1 5.0 5.3 5.5 5.9 6.5 6.8 7.1 7.4 7.2 7.0 6.8 6.6 6.5 6.3 6.2 6.0 5.9 5.6 5.3 5.3 5.7
8.9 9.0 8.8 9.0 8.0 7.7 7.0 6.2 6.3 6.2 5.8 5.7 5.8 5.7 5.6 5.3 5.2 5.0 4.5 4.3 4.2 4.2 4.8 5.1 5.3 5.1 5.2 5.1 5.2 5.5 5.7 6.3 6.8 7.0 7.4 7.2 7.1 7.0 6.8 6.6 6.5 6.3 6.2 6.0 5.6 5.4 5.3 5.5 5.7
Wind_Speed
10 11 2 2 4 5 1 1 4 2 3 4 2 6 9 4 4 2 4 5 9 11 12 14 13 14 14 14 14 14 14 13 13 14 15 16 15 16 16 16 15 16 17 18 19 18 18 18 18
8 3 3 2 5 4 4 1 1 1 1 9 9 5 5 5 4 6 2 5 12 12 13 13 13 15 15 15 15 14 13 13 13 13 15 15 16 17 16 17 17 16 18 18 19 19 18 19 19
5 2 3 4 3 2 2 3 3 2 6 5 6 6 4 3 5 4 8 11 15 12 13 14 16 17 15 15 14 14 12 12 12 13 14 14 16 16 17 17 18 17 17 18 18 18 17 19 18
2 4 4 4 2 3 3 2 5 5 4 4 7 9 5 2 10 8 12 16 13 10 14 16 17 17 14 13 13 13 12 12 13 13 13 13 13 15 16 16 16 16 17 17 18 18 17 18 18
3 3 3 3 3 4 3 4 3 4 6 1 4 8 8 3 14 16 13 14 11 12 15 15 16 14 13 13 13 12 12 12 12 12 12 13 13 13 13 14 14 14 15 15 17 18 18 18 18
4 3 4 2 3 4 5 6 3 3 4 5 6 7 5 15 16 14 12 12 14 13 14 15 14 13 13 13 13 12 12 11 11 11 10 13 15 16 15 14 13 14 12 15 16 16 16 16 17
4 3 3 2 2 5 4 3 2 3 2 2 5 5 6 12 13 13 11 11 14 17 16 15 14 14 13 14 13 12 11 10 8 8 11 12 14 16 15 15 15 14 15 15 16 15 15 15 16
4 4 2 2 1 5 2 4 3 4 1 2 2 5 8 13 16 13 11 9 7 12 14 14 13 13 13 12 12 11 11 12 13 14 14 14 16 16 15 16 15 14 16 16 15 15 15 16 17
3 4 2 4 6 4 4 3 3 1 5 4 9 5 15 22 18 14 11 9 5 5 6 10 10 9 9 9 10 10 10 11 11 12 13 15 15 16 16 15 16 15 15 15 14 14 15 17 18
3 3 8 5 5 5 6 5 8 5 4 4 13 18 18 18 19 18 11 8 5 4 3 5 6 6 6 7 9 9 9 11 11 12 13 15 15 15 11 15 16 15 15 14 15 16 16 17 18
4 5 4 6 9 6 8 6 5 8 4 6 10 20 19 23 12 11 11 8 6 4 3 4 5 4 4 4 4 5 8 9 9 10 11 12 14 14 13 15 16 16 14 15 15 15 16 16 16
3 6 5 7 5 4 6 8 6 4 6 9 23 22 18 17 13 11 9 8 7 5 4 4 4 3 3 2 4 5 6 6 6 7 9 10 10 11 11 13 13 15 14 14 13 13 13 15 15
4 5 3 9 9 1 6 7 6 10 14 21 21 18 16 12 11 7 7 8 7 5 4 4 3 2 4 4 5 3 4 5 3 5 7 9 8 7 9 11 12 12 13 13 11 10 11 11 13
5 5 7 6 6 6 8 5 6 8 13 17 16 13 11 12 9 9 9 8 6 7 5 4 6 7 7 7 6 4 5 4 0 4 6 9 9 8 7 8 9 12 11 11 8 7 7 7 9
3 4 4 10 7 3 4 10 9 8 13 15 15 12 12 13 10 10 11 10 10 8 8 8 7 10 8 8 8 9 8 6 4 4 6 8 10 9 9 9 9 11 11 11 12 9 9 6 8
3 4 4 5 14 6 6 4 7 11 16 16 19 16 15 14 13 13 13 12 11 11 11 9 8 8 8 10 11 8 9 9 5 5 6 7 7 6 7 6 7 10 10 9 9 4 4 3 3
6 2 3 3 18 1 7 7 11 10 15 16 16 16 15 15 15 13 14 13 12 10 8 7 6 7 9 10 10 11 12 13 13 11 10 8 6 6 5 4 6 9 10 8 5 3 1 3 3
3 1 3 3 7 17 18 14 13 10 17 14 15 14 13 13 12 13 14 12 11 9 8 8 7 8 8 8 7 7 8 11 15 15 16 16 10 7 6 6 9 11 7 4 4 3 2 3 2
3 3 4 2 4 9 14 13 10 8 12 13 11 11 12 12 11 12 11 9 10 8 9 9 7 6 5 3 3 3 2 2 5 14 17 17 15 12 10 10 10 11 3 4 4 3 3 2 2
4 5 4 5 7 8 12 11 8 7 7 9 12 11 12 12 11 11 10 8 8 7 7 6 6 7 4 2 2 0 1 1 2 10 14 14 15 14 11 10 9 9 3 5 5 3 2 2 2
4 6 6 6 7 7 13 5 4 6 8 9 9 10 9 11 10 10 9 6 5 6 4 5 5 5 5 6 4 4 3 3 3 3 4 10 13 12 10 11 9 8 5 3 4 3 3 2 2
5 7 15 17 4 5 1 3 3 6 7 7 6 6 6 8 7 5 7 4 3 3 4 3 3 5 5 8 5 6 2 2 2 2 4 11 16 16 14 13 12 10 7 5 4 4 2 1 3
6 10 11 6 6 5 3 4 3 9 6 7 6 7 7 6 7 6 6 4 4 4 1 0 5 5 6 7 6 4 4 2 3 3 6 5 13 17 15 14 13 10 9 7 5 5 4 2 2
12 8 9 5 3 2 2 3 3 5 6 9 9 9 8 7 6 5 4 2 2 2 1 4 5 6 7 6 7 7 6 6 5 5 5 5 4 10 16 16 14 14 10 6 6 6 5 4 4
7 6 3 1 1 4 1 3 1 5 9 13 15 11 9 7 7 6 5 2 3 1 2 5 6 6 6 7 6 6 5 6 6 6 4 7 5 4 7 14 12 11 13 12 9 4 5 4 3
3 7 5 5 4 3 2 2 2 3 8 11 10 11 9 8 6 6 5 4 1 3 4 5 6 5 5 5 6 6 6 4 4 4 5 5 4 6 14 14 14 14 14 12 8 3 3 4 5
3 3 5 7 3 3 1 1 2 5 7 9 11 10 9 8 7 6 5 1 2 3 5 5 5 5 5 5 6 7 6 6 6 7 7 4 9 10 14 14 11 13 12 10 6 3 5 6 6
4 6 3 3 4 3 2 2 3 6 7 8 10 9 8 6 6 5 3 2 2 4 5 5 5 5 4 5 5 5 6 7 8 8 8 8 11 12 12 11 12 11 10 7 5 4 7 7 7
2 3 6 5 3 4 1 3 2 8 10 12 9 9 9 8 7 5 3 2 4 5 5 5 5 4 5 5 5 6 6 7 8 6 7 10 12 13 10 10 8 8 7 6 5 7 9 10 10
3 4 4 4 3 2 3 2 7 8 11 9 8 8 7 7 7 6 3 3 4 5 5 5 4 5 4 4 5 6 6 6 7 8 9 14 9 13 12 11 8 9 10 10 7 10 10 11 12
Wind_Direction
131 146 120 44 56 64 274 93 173 312 311 124 62 82 124 65 25 335 40 96 114 106 118 113 114 112 103 96 92 85 80 75 73 71 68 61 59 57 49 44 42 40 40 37 36 33 29 26 28
146 147 46 74 80 47 305 212 281 42 317 118 106 120 60 75 70 112 88 91 97 100 104 111 115 107 100 95 89 84 79 75 72 69 67 63 56 52 50 44 40 39 37 32 32 30 25 28 26
156 60 78 90 105 148 231 209 148 88 51 147 115 66 85 97 131 121 123 113 98 99 112 112 107 101 95 92 93 85 82 76 73 71 67 59 52 47 42 38 37 33 30 28 23 26 25 25 26
77 12 34 79 192 244 191 240 150 178 122 49 114 85 96 352 160 133 127 115 104 91 97 103 102 96 97 100 92 89 87 80 73 69 62 54 46 37 33 30 29 27 26 19 23 21 25 19 16
35 62 51 46 279 278 230 231 212 161 121 65 138 153 135 55 106 114 119 114 108 97 96 96 93 100 101 97 92 94 87 78 73 68 56 44 33 29 20 21 19 19 17 24 22 21 17 14 10
37 94 58 295 273 275 269 221 275 101 141 157 95 122 82 121 118 118 114 109 103 99 97 97 103 102 101 101 98 94 85 76 64 56 43 33 32 25 24 19 11 12 27 24 17 16 12 10 5
112 83 191 237 286 304 247 122 286 121 94 56 106 87 105 120 114 114 104 91 92 96 97 104 109 115 113 109 102 93 79 63 51 47 36 46 35 30 23 21 24 24 18 11 10 9 11 14 10
110 94 154 242 221 272 283 162 92 34 73 119 74 158 157 142 131 108 90 69 71 97 113 118 119 125 125 117 107 92 78 68 60 62 56 49 41 34 32 34 28 19 13 10 6 16 16 16 14
116 64 205 228 169 235 164 166 41 54 116 61 5 34 126 135 120 107 103 97 79 80 105 127 125 121 114 103 92 71 78 73 60 56 56 52 48 40 38 32 27 21 17 15 19 23 21 20 16
101 142 216 218 194 202 197 153 151 138 164 94 74 98 117 127 135 133 136 132 125 147 119 91 99 96 83 77 76 73 71 68 57 65 60 54 50 43 47 34 31 24 26 31 27 23 23 21 16
179 217 209 254 233 215 175 149 184 129 268 195 161 144 142 139 133 131 137 141 154 142 110 96 86 89 72 89 78 70 57 42 59 61 62 58 50 42 42 33 28 29 26 25 21 20 22 17 13
226 236 216 278 250 161 191 143 105 38 343 104 123 137 139 146 142 145 136 137 138 125 107 105 119 90 32 69 48 51 60 25 51 58 64 61 50 43 41 37 32 30 20 13 12 14 14 11 8
215 270 269 263 289 212 85 75 101 47 74 100 118 128 134 122 120 114 123 112 108 103 105 108 119 38 47 57 65 43 31 24 47 76 76 70 66 59 43 33 31 24 16 12 6 7 3 3 358
205 240 282 321 22 31 102 82 76 75 101 94 105 114 112 119 114 114 109 109 105 110 96 106 74 82 82 81 67 40 20 350 56 93 73 59 59 60 46 30 23 19 13 8 2 354 349 345 349
260 285 31 17 5 78 294 34 53 103 102 105 108 110 106 110 109 109 115 113 108 98 98 75 67 57 54 60 52 30 19 20 57 59 43 35 34 37 32 23 14 5 0 358 356 346 346 343 339
23 53 61 11 3 24 53 64 34 68 89 84 82 80 82 83 94 97 99 96 85 75 67 52 53 63 52 45 38 31 23 20 30 40 24 19 21 31 28 17 0 349 349 346 345 322 323 323 325
0 225 78 360 19 258 55 100 74 80 90 85 86 90 91 85 70 73 80 79 75 76 74 62 48 40 33 37 40 41 48 46 48 35 11 354 8 18 11 354 337 346 343 343 337 307 248 298 315
246 55 82 64 9 66 78 79 68 67 86 89 88 95 91 85 84 85 76 71 71 66 67 63 48 32 23 35 52 49 49 41 39 31 22 24 14 6 352 349 346 350 341 331 334 293 296 265 294
174 118 109 125 180 70 86 85 87 93 91 103 112 101 104 98 95 80 79 77 79 64 62 54 49 21 32 19 5 18 24 340 23 26 27 23 22 22 8 352 347 347 335 312 310 295 311 306 322
176 128 101 83 111 88 105 92 115 103 100 113 118 119 115 107 88 81 75 63 61 67 60 58 53 37 24 19 354 54 309 10 9 11 19 18 13 0 357 353 337 339 335 335 332 336 314 286 323
193 167 177 146 102 79 127 104 122 80 110 102 100 114 112 124 121 107 95 71 66 64 58 60 46 46 34 33 22 13 23 15 3 345 342 346 356 356 352 344 336 327 331 315 305 297 311 301 306
265 187 146 148 116 155 229 215 192 155 127 107 105 96 105 113 101 103 93 92 92 60 51 66 61 50 46 40 46 47 39 353 316 300 315 340 349 345 341 339 335 323 322 311 301 299 277 265 279
225 122 125 110 83 105 3 88 310 137 165 151 153 145 137 135 121 122 128 122 63 45 249 176 77 62 45 44 46 42 25 337 305 324 338 332 332 335 333 330 325 315 310 298 290 302 290 256 260
131 84 63 57 84 48 206 129 209 188 170 164 168 157 147 137 131 132 111 106 72 275 273 77 73 50 40 37 31 34 22 349 352 339 334 325 312 316 322 325 318 309 295 288 290 293 279 277 258
72 81 67 5 27 225 2 127 281 254 174 171 166 158 151 138 147 153 154 161 204 106 54 80 61 47 30 31 23 14 10 359 345 330 315 318 315 305 307 313 310 305 299 296 295 292 296 292 275
144 149 155 208 192 229 17 197 272 5 79 116 132 135 133 142 162 165 178 193 159 110 75 74 54 43 29 23 10 6 3 345 326 316 310 303 296 305 304 309 311 309 311 309 308 305 307 301 294
180 79 150 106 51 96 174 319 36 84 77 109 127 141 151 162 165 170 174 179 133 81 71 67 58 55 39 22 10 358 347 345 329 322 318 310 311 322 326 321 319 322 323 331 341 339 315 305 295
124 151 83 27 139 242 244 213 208 178 159 146 152 159 161 153 153 152 151 141 102 81 85 68 59 57 33 19 8 349 337 340 336 333 332 330 328 327 330 331 332 330 335 352 347 324 316 296 302
63 64 55 110 110 163 181 272 342 181 168 171 167 168 164 151 148 145 163 91 79 98 84 76 57 57 29 13 352 352 347 346 345 342 337 337 332 337 336 337 334 335 329 326 325 322 313 308 304
90 99 117 117 222 69 130 251 327 155 157 152 156 145 126 134 135 144 142 104 88 83 65 69 61 47 17 353 353 356 356 351 354 350 343 339 337 337 337 337 337 337 335 325 315 315 311 311 310